TimePDT,TemperatureF,Dew PointF,Humidity,Sea Level PressureIn,VisibilityMPH,Wind Direction,Wind SpeedMPH,Gust SpeedMPH,PrecipitationIn,Events,Conditions,WindDirDegrees,DateUTC
12:56 AM,73.0,66.0,79,29.88,10.0,Calm,Calm,-,N/A,,Clear,0,2013-08-25 07:56:00
1:56 AM,72.0,64.0,76,29.88,10.0,Calm,Calm,-,N/A,,Clear,0,2013-08-25 08:56:00
3:56 AM,73.0,64.9,76,29.90,10.0,SSE,8.1,-,N/A,,Clear,160,2013-08-25 10:56:00
4:56 AM,70.0,64.9,84,29.91,10.0,Calm,Calm,-,N/A,,Partly Cloudy,0,2013-08-25 11:56:00
5:56 AM,70.0,64.9,84,29.94,10.0,Calm,Calm,-,N/A,,Clear,0,2013-08-25 12:56:00
6:56 AM,69.1,64.9,87,29.96,9.0,Calm,Calm,-,N/A,,Clear,0,2013-08-25 13:56:00
7:56 AM,73.9,64.9,73,29.96,10.0,Calm,Calm,-,N/A,,Clear,0,2013-08-25 14:56:00
8:56 AM,79.0,66.0,64,29.96,10.0,ESE,10.4,-,N/A,,Clear,120,2013-08-25 15:56:00
9:07 AM,80.6,64.4,58,30.06,10.0,ESE,11.5,-,N/A,,Scattered Clouds,110,2013-08-25 16:07:00
9:56 AM,82.9,66.9,58,29.96,10.0,SE,11.5,19.6,N/A,,Scattered Clouds,130,2013-08-25 16:56:00
10:56 AM,87.1,66.0,49,29.94,10.0,ESE,17.3,26.5,N/A,,Mostly Cloudy,120,2013-08-25 17:56:00
11:56 AM,90.0,62.1,39,29.93,10.0,SE,19.6,28.8,N/A,,Mostly Cloudy,130,2013-08-25 18:56:00
12:56 PM,93.0,60.1,33,29.90,10.0,SSE,17.3,24.2,N/A,,Mostly Cloudy,150,2013-08-25 19:56:00
1:56 PM,90.0,64.0,42,29.89,10.0,SE,24.2,33.4,N/A,,Mostly Cloudy,130,2013-08-25 20:56:00
2:56 PM,87.1,64.0,46,29.88,10.0,ESE,23.0,31.1,0.00,,Mostly Cloudy,110,2013-08-25 21:56:00
3:22 PM,78.8,64.4,61,30.00,10.0,ESE,26.5,36.8,N/A,Thunderstorm,Thunderstorm,110,2013-08-25 22:22:00
3:56 PM,77.0,61.0,58,29.91,10.0,SE,25.3,33.4,0.00,Thunderstorm,Thunderstorm,140,2013-08-25 22:56:00
4:04 PM,75.2,64.4,69,30.01,10.0,SE,26.5,33.4,0.00,Rain-Thunderstorm,Light Rain,130,2013-08-25 23:04:00
4:56 PM,77.0,62.1,60,29.93,10.0,ESE,17.3,-,0.00,Rain-Thunderstorm,Light Rain,110,2013-08-25 23:56:00
5:38 PM,75.2,69.8,83,30.04,10.0,East,11.5,18.4,0.01,,Scattered Clouds,80,2013-08-26 00:38:00
5:56 PM,77.0,70.0,79,29.94,10.0,East,11.5,-,0.01,Rain,Light Rain,100,2013-08-26 00:56:00
6:56 PM,75.9,66.9,74,29.95,10.0,ESE,13.8,-,0.00,,Clear,120,2013-08-26 01:56:00
7:56 PM,75.9,64.0,67,29.96,10.0,SE,8.1,-,N/A,,Clear,140,2013-08-26 02:56:00
8:56 PM,75.0,66.0,73,29.98,10.0,SE,6.9,-,0.00,Rain,Light Rain,140,2013-08-26 03:56:00
9:56 PM,73.9,69.1,85,29.99,10.0,ESE,5.8,-,0.00,,Partly Cloudy,110,2013-08-26 04:56:00
10:56 PM,73.9,69.1,85,29.98,10.0,ESE,6.9,-,N/A,,Mostly Cloudy,120,2013-08-26 05:56:00
11:56 PM,73.0,69.1,87,29.97,10.0,South,3.5,-,N/A,,Scattered Clouds,170,2013-08-26 06:56:00